Skip Page Navigation
NASA JPL Caltech
NASA Logo - Jet Propulsion Laboratory + View the NASA Portal
+ Center for Near-Earth Object Studies
JPL Home Earth Solar System Stars & Galaxies Technology
JPL Solar System Dynamics
BODIES ORBITS EPHEMERIDES TOOLS PHYSICAL DATA DISCOVERY FAQ SITE MAP
IMPORTANT: The SSD Announcement email list is now available. Major changes are coming in the near future, including possible hostname and/or URL changes. To be notified of such changes, subscribe to this email list.

Please visit this page for more details.


JPL Small-Body Database Browser
Search: [ help ]  
245564 (2005 UE110)
Classification: Main-belt Asteroid          SPK-ID: 2245564
Ephemeris | Orbit Diagram | Orbital Elements | Mission Design | Physical Parameters | Discovery Circumstances | Close-Approach Data ]

[ show orbit diagram ]
Orbital Elements at Epoch 2459000.5 (2020-May-31.0) TDB
Reference: JPL 9 (heliocentric ecliptic J2000)
 Element Value Uncertainty (1-sigma)   Units 
e .1712031880832603 8.8979e-08  
a 2.237131025991004 9.5534e-09 au
q 1.854127062181369 2.011e-07 au
i 1.763747967383891 9.365e-06 deg
node 330.1848063987995 0.00016189 deg
peri 5.460226118592916 0.00016283 deg
M 187.7692036785718 1.49e-05 deg
tp 2459585.214504431832
(2022-Jan-05.71450443)
5.1226e-05 TDB
period 1222.181085446624
3.35
7.8288e-06
2.143e-08
d
yr
n .294555368502078 1.8868e-09 deg/d
Q 2.620134989800639 1.1189e-08 au
  Orbit Determination Parameters
   # obs. used (total)      160  
   data-arc span      7819 days (21.41 yr)  
   first obs. used      1998-08-30  
   last obs. used      2020-01-26  
   planetary ephem.      DE431  
   SB-pert. ephem.      SB431-N16  
   condition code      0  
   norm. resid. RMS      .6757  
   source      ORB  
   producer      Otto Matic  
   solution date      2020-Feb-25 09:44:17  

Additional Information
 Earth MOID = .844387 au 
 Jupiter MOID = 2.74112 au 
 T_jup = 3.617 
[ show covariance matrix ]

Ephemeris | Orbit Diagram | Orbital Elements | Mission Design | Physical Parameters | Discovery Circumstances | Close-Approach Data ]

Physical Parameter Table
Parameter Symbol Value Units Sigma Reference Notes
absolute magnitude H 18.0   n/a MPO251705  

245564 (2005 UE110)          Discovered 2005-Oct-22 by Spacewatch at Kitt Peak
Reference: 20100726/Numbers.arcLast Updated: 2010-07-28

[ show close-approach data ]
Alternate Designations
 2005 UE110 = 1998 QH57 
Ephemeris | Orbit Diagram | Orbital Elements | Mission Design | Physical Parameters | Discovery Circumstances | Close-Approach Data ]
ABOUT SSD CREDITS/AWARDS PRIVACY/COPYRIGHT GLOSSARY LINKS
FirstGov 2020-Mar-29 00:57 UT
(server date/time)  
NASA Home Page
Site Manager:   Ryan S. Park
Webmaster  Alan B. Chamberlin